Location: *
(51.2167°N, 10.0667°E)
Time: 04:33:23
(UTC+00:00)

ATLAS 2AS CENTAUR R/B - Pass Details

Date: 12 December 2019
Orbit: 927 x 1285 km, 63.7° (Epoch: 19 January)

Event Time Altitude Azimuth Distance (km) Brightness Sun altitude
Rises 17:09:05 0° 264° (W) 4,249 7.5 -17.1°
Reaches altitude 10° 17:12:09 10° 272° (W) 3,289 6.4 -17.6°
Maximum altitude 17:19:36 40° 340° (NNW) 1,811 3.9 -18.7°
Enters shadow 17:24:35 20° 38° (NE) 2,560 4.2 -19.5°
